When you browse on this site, cookies collect data to enhance your experience and personalize the content and advertising you see.
Visit our Privacy Policy to learn more. By continuing to use the site, you agree to this use of cookies and data.
  • In United Kingdom
  • List of Countries
  • For 7 days
  • Water Temperature
  • Satellite Maps
  • Weather Map
  • Weather Widgets
  • user-avatar
    Login

    Hourly Weather Medellín

    Today, 21 April, Sunday

    Time Temperature Precipitation Wind Pressure Humidity
    00:00 +14°C° 4.5 mm 0 mps 587 mmHg 90%
    01:00 +14°C° 4.5 mm 0 mps 587 mmHg 91%
    02:00 +14°C° 4.2 mm 0 mps 587 mmHg 92%
    03:00 +14°C° 4.2 mm 0 mps 587 mmHg 92%
    04:00 +14°C° 4.2 mm 0 mps 586 mmHg 93%
    05:00 +13°C° 1.2 mm 0 mps 587 mmHg 93%
    06:00 +13°C° 1.2 mm 0 mps 587 mmHg 93%
    07:00 +13°C° 1.2 mm 0 mps 587 mmHg 92%
    08:00 +14°C° 0.9 mm 0 mps 587 mmHg 90%
    09:00 +15°C° 0.9 mm 0 mps 588 mmHg 87%
    10:00 +16°C° 0.9 mm 0 mps 588 mmHg 85%
    11:00 +17°C° 0.7 mm 0 mps 588 mmHg 81%
    12:00 +18°C° 0.7 mm 0 mps 588 mmHg 77%
    13:00 +19°C° 0.7 mm 0 mps 588 mmHg 73%
    14:00 +19°C° 0.5 mm 0 mps 588 mmHg 73%
    15:00 +19°C° 0.5 mm 0 mps 587 mmHg 72%
    16:00 +18°C° 0.5 mm 0 mps 587 mmHg 71%
    17:00 +17°C° 0.8 mm 0 mps 587 mmHg 76%
    18:00 +16°C° 0.8 mm 0 mps 586 mmHg 81%
    19:00 +14°C° 0.8 mm 0 mps 586 mmHg 85%
    20:00 +14°C° 0.8 mm 0 mps 586 mmHg 87%
    21:00 +13°C° 0.8 mm 0 mps 587 mmHg 88%
    22:00 +13°C° 0.8 mm 0 mps 587 mmHg 90%
    23:00 +13°C° 1.4 mm 0 mps 587 mmHg 91%

    Tomorrow, 22 April, Monday

    Time Temperature Precipitation Wind Pressure Humidity
    00:00 +13°C° 1.4 mm 0 mps 587 mmHg 92%
    01:00 +12°C° 1.4 mm 0 mps 586 mmHg 93%
    02:00 +12°C° 1.7 mm 0 mps 586 mmHg 93%
    03:00 +12°C° 1.7 mm 0 mps 586 mmHg 93%
    04:00 +12°C° 1.7 mm 0 mps 585 mmHg 94%
    05:00 +12°C° 0.5 mm 0 mps 586 mmHg 93%
    06:00 +12°C° 0.5 mm 0 mps 586 mmHg 93%
    07:00 +12°C° 0.5 mm 0 mps 586 mmHg 92%
    08:00 +15°C° 0.1 mm 0 mps 588 mmHg 81%
    09:00 +19°C° 0.1 mm 1 mps 589 mmHg 70%
    10:00 +22°C° 0.1 mm 1 mps 590 mmHg 59%
    11:00 +22°C° 0.2 mm 1 mps 590 mmHg 58%
    12:00 +23°C° 0.2 mm 1 mps 590 mmHg 57%
    13:00 +23°C° 0.2 mm 1 mps 589 mmHg 56%
    14:00 +22°C° 0.3 mm 1 mps 588 mmHg 59%
    15:00 +22°C° 0.3 mm 1 mps 588 mmHg 62%
    16:00 +21°C° 0.3 mm 1 mps 587 mmHg 65%
    17:00 +19°C° 0.4 mm 1 mps 586 mmHg 70%
    18:00 +16°C° 0.4 mm 0 mps 586 mmHg 75%
    19:00 +14°C° 0.4 mm 0 mps 586 mmHg 80%
    20:00 +14°C° 0.5 mm 0 mps 586 mmHg 82%
    21:00 +14°C° 0.5 mm 0 mps 587 mmHg 83%
    22:00 +14°C° 0.5 mm 0 mps 587 mmHg 85%
    23:00 +13°C° 0.3 mm 0 mps 587 mmHg 86%

    Day after tomorrow, 23 April, Tuesday

    Time Temperature Precipitation Wind Pressure Humidity
    00:00 +13°C° 0.3 mm 0 mps 586 mmHg 86%
    01:00 +13°C° 0.3 mm 0 mps 586 mmHg 87%
    02:00 +12°C° 0.2 mm 0 mps 586 mmHg 87%
    03:00 +12°C° 0.2 mm 0 mps 585 mmHg 87%
    04:00 +12°C° 0.2 mm 0 mps 585 mmHg 87%
    05:00 +12°C° 0.1 mm 0 mps 585 mmHg 87%
    06:00 +12°C° 0.1 mm 0 mps 586 mmHg 86%
    07:00 +12°C° 0.1 mm 0 mps 586 mmHg 85%
    08:00 +15°C° 0 mm 0 mps 588 mmHg 75%
    09:00 +18°C° 0 mm 0 mps 589 mmHg 64%
    10:00 +22°C° 0 mm 1 mps 590 mmHg 54%
    11:00 +23°C° 0 mm 1 mps 590 mmHg 52%
    12:00 +23°C° 0 mm 1 mps 590 mmHg 50%
    13:00 +24°C° 0 mm 1 mps 589 mmHg 49%
    14:00 +23°C° 0.3 mm 1 mps 588 mmHg 52%
    15:00 +23°C° 0.3 mm 1 mps 588 mmHg 56%
    16:00 +22°C° 0.3 mm 1 mps 587 mmHg 60%
    17:00 +20°C° 0.3 mm 1 mps 587 mmHg 67%
    18:00 +16°C° 0.3 mm 0 mps 586 mmHg 74%
    19:00 +14°C° 0.3 mm 0 mps 586 mmHg 82%
    20:00 +14°C° 0 mm 0 mps 586 mmHg 83%
    21:00 +14°C° 0 mm 0 mps 586 mmHg 85%
    22:00 +13°C° 0 mm 0 mps 587 mmHg 86%
    23:00 +13°C° 0 mm 0 mps 586 mmHg 87%

    24 April, Wednesday

    Time Temperature Precipitation Wind Pressure Humidity
    00:00 +13°C° 0 mm 0 mps 586 mmHg 88%
    01:00 +13°C° 0 mm 0 mps 586 mmHg 88%
    02:00 +12°C° 0 mm 0 mps 586 mmHg 89%
    03:00 +12°C° 0 mm 0 mps 585 mmHg 89%
    04:00 +12°C° 0 mm 0 mps 585 mmHg 89%
    05:00 +12°C° 0 mm 0 mps 586 mmHg 86%
    06:00 +13°C° 0 mm 0 mps 586 mmHg 84%
    07:00 +13°C° 0 mm 0 mps 587 mmHg 81%
    08:00 +16°C° 0 mm 0 mps 588 mmHg 72%
    09:00 +18°C° 0 mm 0 mps 589 mmHg 63%
    10:00 +21°C° 0 mm 0 mps 591 mmHg 54%
    11:00 +22°C° 0.1 mm 0 mps 590 mmHg 51%
    12:00 +25°C° 0.1 mm 1 mps 590 mmHg 48%
    13:00 +26°C° 0.1 mm 1 mps 590 mmHg 45%
    14:00 +25°C° 0.3 mm 1 mps 589 mmHg 51%
    15:00 +24°C° 0.3 mm 1 mps 588 mmHg 56%
    16:00 +23°C° 0.3 mm 1 mps 587 mmHg 62%
    17:00 +21°C° 0.4 mm 1 mps 587 mmHg 69%
    18:00 +19°C° 0.4 mm 1 mps 586 mmHg 76%
    19:00 +15°C° 0.4 mm 0 mps 586 mmHg 83%
    20:00 +15°C° 0.1 mm 0 mps 586 mmHg 85%
    21:00 +14°C° 0.1 mm 0 mps 586 mmHg 86%
    22:00 +14°C° 0.1 mm 0 mps 587 mmHg 88%
    23:00 +14°C° 0.2 mm 0 mps 587 mmHg 89%

    25 April, Thursday

    Time Temperature Precipitation Wind Pressure Humidity
    00:00 +14°C° 0.2 mm 0 mps 586 mmHg 89%
    01:00 +14°C° 0.2 mm 0 mps 586 mmHg 90%
    02:00 +14°C° 0.6 mm 0 mps 586 mmHg 89%
    03:00 +14°C° 0.6 mm 0 mps 586 mmHg 89%
    04:00 +13°C° 0.6 mm 0 mps 586 mmHg 89%
    05:00 +14°C° 1.5 mm 0 mps 586 mmHg 89%
    06:00 +14°C° 1.5 mm 0 mps 587 mmHg 89%
    07:00 +14°C° 1.5 mm 0 mps 587 mmHg 88%
    08:00 +14°C° 1.9 mm 0 mps 587 mmHg 87%
    09:00 +15°C° 1.9 mm 0 mps 588 mmHg 85%
    10:00 +15°C° 1.9 mm 0 mps 588 mmHg 84%
    11:00 +17°C° 0.3 mm 0 mps 588 mmHg 77%
    12:00 +19°C° 0.3 mm 0 mps 589 mmHg 70%
    13:00 +21°C° 0.3 mm 0 mps 589 mmHg 63%
    14:00 +21°C° 0.5 mm 0 mps 588 mmHg 66%
    15:00 +20°C° 0.5 mm 0 mps 588 mmHg 68%
    16:00 +20°C° 0.5 mm 0 mps 587 mmHg 70%
    17:00 +20°C° 0.4 mm 1 mps 587 mmHg 75%
    18:00 +19°C° 0.4 mm 1 mps 586 mmHg 80%
    19:00 +16°C° 0.4 mm 1 mps 586 mmHg 85%
    20:00 +15°C° 0 mm 0 mps 586 mmHg 87%
    21:00 +14°C° 0 mm 0 mps 587 mmHg 88%
    22:00 +14°C° 0 mm 0 mps 587 mmHg 90%
    23:00 +14°C° 0 mm 0 mps 586 mmHg 91%

    26 April, Friday

    Time Temperature Precipitation Wind Pressure Humidity
    00:00 +14°C° 0 mm 0 mps 586 mmHg 92%
    01:00 +13°C° 0 mm 0 mps 586 mmHg 92%
    02:00 +13°C° 0.1 mm 0 mps 586 mmHg 92%
    03:00 +13°C° 0.1 mm 0 mps 586 mmHg 92%
    04:00 +13°C° 0.1 mm 0 mps 585 mmHg 92%
    05:00 +14°C° 0 mm 0 mps 586 mmHg 91%
    06:00 +14°C° 0 mm 0 mps 586 mmHg 90%
    07:00 +15°C° 0 mm 0 mps 587 mmHg 88%
    08:00 +17°C° 0 mm 0 mps 588 mmHg 79%
    09:00 +19°C° 0 mm 0 mps 589 mmHg 69%
    10:00 +21°C° 0 mm 0 mps 590 mmHg 60%
    11:00 +22°C° 0.5 mm 0 mps 590 mmHg 59%
    12:00 +24°C° 0.5 mm 1 mps 589 mmHg 59%
    13:00 +25°C° 0.5 mm 1 mps 589 mmHg 59%
    14:00 +24°C° 1.2 mm 1 mps 588 mmHg 62%
    15:00 +23°C° 1.2 mm 1 mps 588 mmHg 65%
    16:00 +23°C° 1.2 mm 1 mps 587 mmHg 68%
    17:00 +21°C° 0.6 mm 1 mps 586 mmHg 74%
    18:00 +19°C° 0.6 mm 1 mps 586 mmHg 80%
    19:00 +16°C° 0.6 mm 1 mps 586 mmHg 85%
    20:00 +16°C° 0.2 mm 1 mps 586 mmHg 86%
    21:00 +15°C° 0.2 mm 0 mps 586 mmHg 87%
    22:00 +14°C° 0.2 mm 0 mps 587 mmHg 88%
    23:00 +14°C° 0.3 mm 0 mps 586 mmHg 88%
    Show more